Orbital Elements at Epoch 2459200.5 (2020-Dec-17.0) TDB
Reference: JPL 19 (heliocentric ecliptic J2000)
Element | Value | Uncertainty (1-sigma) | Units |
e | .537563495409158 | 7.4132e-05 | |
a | .7553915160469488 | 1.4547e-05 | au |
q | .3493206122783279 | 6.2725e-05 | au |
i | 3.449761542913898 | 0.00078873 | deg |
node | 197.8188414316395 | 0.00093887 | deg |
peri | 30.15047034236525 | 0.0014406 | deg |
M | 212.8522719417385 | 0.0034594 | deg |
tp | 2459298.518407313143 (2021-Mar-25.01840731) | 0.0005372 | TDB |
period | 239.8040873506401 0.66 | 0.0069271 1.897e-05 | d yr |
n | 1.501225454400242 | 4.3365e-05 | deg/d |
Q | 1.16146241981557 | 2.2367e-05 | au |
|
| | Orbit Determination Parameters
Additional Information
|